Tracking 18852 objects as of 23-Nov-2017
HD Live streaming from Space Station
objects crossing your sky now

FENGYUN 1C DEB

Track FENGYUN 1C DEB now!
10-day predictions


NORAD ID: 35088
Int'l Code: 1999-025DJQ
Perigee: 722.9 km
Apogee: 1,265.6 km
Inclination: 94.7 °
Period: 104.8 minutes
Semi major axis: 7365 km
RCS: 0.0088 m2 (small)
Launch date: May 10, 1999
Source: People's Republic of China (PRC)
Launch site: Taiyaun Space Center, China (TSC)

Note: This is SATELLITE DEBRIS
aabbcc
Your satellite tracking list
Your tracking list is empty




NASA's NSSDC Master Catalog

Two Line Element Set (TLE):
1 35088U 99025DJQ 17298.78107905  .00001247  00000-0  82956-3 0  9990
2 35088  94.6960 125.1970 0368390 353.3359  64.8015 13.73483702491742
Source of the keplerian elements: AFSPC